User: anonymous   Login
Location: Feigenhofen
(48.4939°N, 10.7793°E)
Time: 05:33:19
(UTC+00:00)
Language:

ATLAS CENTAUR R/B - Orbit

View from above orbital plane
View from above orbital plane
View from above satellite
View from above satellite

Ground track
Ground track

The orbit data is extracted from the following two-line orbital elements,

1 38770U 12048N   22222.02458941 0.00003500  00000-0  19460-3 0    07
2 38770  64.6564 205.2214 0177501 250.6068 109.3932 15.00897860    03
Epoch (UTC): 10 August 2022 00:35:24
Eccentricity: 0.0177501
inclination: 64.6564°
perigee height: 441 km
apogee height: 687 km
right ascension of ascending node: 205.2214°
argument of perigee: 250.6068°
revolutions per day: 15.00897860
mean anomaly at epoch: 109.3932°
orbit number at epoch: 0

The dashed part of the orbit path shows where the satellite is in the earth's shadow,  

DLR